When you browse on this site, cookies collect data to enhance your experience and personalize the content and advertising you see.
Visit our Privacy Policy to learn more. By continuing to use the site, you agree to this use of cookies and data.
  • In Romania
  • List of Countries
  • For 7 days
  • Water Temperature
  • Satellite Maps
  • Weather Map
  • Weather Widgets
  • user-avatar
    Login

    Hourly Weather Dubovyy Umet

    Today, 18 July, Thursday

    Time Temperature Precipitation Wind Pressure Humidity
    00:00 +18°C° 0.1 mm 4 mps 743 mmHg 86%
    01:00 +17°C° 0 mm 4 mps 743 mmHg 87%
    02:00 +17°C° 0 mm 3 mps 742 mmHg 88%
    03:00 +17°C° 0 mm 3 mps 742 mmHg 88%
    04:00 +17°C° 0 mm 3 mps 742 mmHg 85%
    05:00 +18°C° 0 mm 3 mps 742 mmHg 83%
    06:00 +19°C° 0 mm 3 mps 742 mmHg 80%
    07:00 +21°C° 0 mm 3 mps 742 mmHg 75%
    08:00 +23°C° 0 mm 2 mps 742 mmHg 71%
    09:00 +25°C° 0 mm 1 mps 742 mmHg 65%
    10:00 +27°C° 0 mm 1 mps 742 mmHg 61%
    11:00 +28°C° 0 mm 2 mps 742 mmHg 58%
    12:00 +29°C° 0 mm 2 mps 742 mmHg 54%
    13:00 +29°C° 0 mm 2 mps 742 mmHg 54%
    14:00 +29°C° 0 mm 3 mps 742 mmHg 55%
    15:00 +29°C° 0 mm 3 mps 742 mmHg 55%
    16:00 +29°C° 0 mm 3 mps 742 mmHg 59%
    17:00 +28°C° 0 mm 3 mps 742 mmHg 64%
    18:00 +27°C° 0 mm 3 mps 742 mmHg 68%
    19:00 +25°C° 0 mm 3 mps 743 mmHg 73%
    20:00 +24°C° 0 mm 3 mps 743 mmHg 78%
    21:00 +21°C° 0 mm 2 mps 743 mmHg 83%
    22:00 +21°C° 0 mm 2 mps 743 mmHg 86%
    23:00 +20°C° 0 mm 2 mps 743 mmHg 89%

    Tomorrow, 19 July, Friday

    Time Temperature Precipitation Wind Pressure Humidity
    00:00 +19°C° 0 mm 2 mps 744 mmHg 92%
    01:00 +19°C° 0 mm 2 mps 744 mmHg 92%
    02:00 +19°C° 0 mm 2 mps 744 mmHg 93%
    03:00 +18°C° 0 mm 2 mps 745 mmHg 94%
    04:00 +19°C° 0 mm 2 mps 745 mmHg 91%
    05:00 +20°C° 0 mm 2 mps 745 mmHg 89%
    06:00 +20°C° 0 mm 2 mps 745 mmHg 86%
    07:00 +23°C° 0 mm 2 mps 745 mmHg 79%
    08:00 +24°C° 0 mm 3 mps 746 mmHg 73%
    09:00 +25°C° 0 mm 3 mps 746 mmHg 66%
    10:00 +26°C° 0 mm 3 mps 746 mmHg 62%
    11:00 +27°C° 0 mm 3 mps 746 mmHg 57%
    12:00 +28°C° 0 mm 4 mps 746 mmHg 53%
    13:00 +27°C° 0 mm 4 mps 746 mmHg 54%
    14:00 +27°C° 0 mm 4 mps 746 mmHg 55%
    15:00 +27°C° 0 mm 4 mps 746 mmHg 55%
    16:00 +27°C° 0 mm 3 mps 746 mmHg 59%
    17:00 +26°C° 0 mm 3 mps 747 mmHg 62%
    18:00 +26°C° 0 mm 2 mps 747 mmHg 66%
    19:00 +24°C° 0 mm 2 mps 747 mmHg 68%
    20:00 +23°C° 0 mm 2 mps 747 mmHg 71%
    21:00 +20°C° 0 mm 2 mps 747 mmHg 73%
    22:00 +20°C° 0 mm 2 mps 747 mmHg 75%
    23:00 +19°C° 0 mm 2 mps 747 mmHg 77%

    Day after tomorrow, 20 July, Saturday

    Time Temperature Precipitation Wind Pressure Humidity
    00:00 +19°C° 0 mm 2 mps 748 mmHg 80%
    01:00 +18°C° 0 mm 2 mps 748 mmHg 81%
    02:00 +18°C° 0 mm 2 mps 748 mmHg 82%
    03:00 +17°C° 0 mm 2 mps 748 mmHg 83%
    04:00 +18°C° 0 mm 2 mps 748 mmHg 80%
    05:00 +19°C° 0 mm 2 mps 748 mmHg 78%
    06:00 +19°C° 0 mm 2 mps 748 mmHg 76%
    07:00 +21°C° 0 mm 2 mps 748 mmHg 70%
    08:00 +23°C° 0 mm 2 mps 749 mmHg 63%
    09:00 +25°C° 0 mm 2 mps 749 mmHg 57%
    10:00 +26°C° 0 mm 3 mps 749 mmHg 54%
    11:00 +27°C° 0 mm 3 mps 749 mmHg 51%
    12:00 +27°C° 0 mm 3 mps 749 mmHg 47%
    13:00 +27°C° 0 mm 4 mps 749 mmHg 50%
    14:00 +27°C° 0 mm 5 mps 748 mmHg 53%
    15:00 +27°C° 0 mm 5 mps 748 mmHg 55%
    16:00 +26°C° 0 mm 4 mps 748 mmHg 59%
    17:00 +26°C° 0 mm 4 mps 748 mmHg 63%
    18:00 +25°C° 0 mm 3 mps 748 mmHg 68%
    19:00 +24°C° 0 mm 3 mps 748 mmHg 70%
    20:00 +21°C° 0 mm 3 mps 749 mmHg 73%
    21:00 +19°C° 0 mm 3 mps 749 mmHg 75%
    22:00 +19°C° 0 mm 3 mps 749 mmHg 77%
    23:00 +18°C° 0 mm 3 mps 749 mmHg 80%

    21 July, Sunday

    Time Temperature Precipitation Wind Pressure Humidity
    00:00 +17°C° 0 mm 3 mps 749 mmHg 82%
    01:00 +17°C° 0 mm 3 mps 749 mmHg 84%
    02:00 +16°C° 0 mm 3 mps 749 mmHg 87%
    03:00 +16°C° 0 mm 3 mps 749 mmHg 89%
    04:00 +16°C° 0 mm 3 mps 749 mmHg 86%
    05:00 +17°C° 0 mm 3 mps 749 mmHg 83%
    06:00 +18°C° 0 mm 4 mps 749 mmHg 80%
    07:00 +19°C° 0 mm 4 mps 749 mmHg 74%
    08:00 +21°C° 0 mm 5 mps 749 mmHg 69%
    09:00 +22°C° 0 mm 5 mps 749 mmHg 63%
    10:00 +23°C° 0 mm 6 mps 749 mmHg 61%
    11:00 +24°C° 0 mm 6 mps 749 mmHg 58%
    12:00 +24°C° 0 mm 6 mps 748 mmHg 56%
    13:00 +26°C° 0 mm 6 mps 748 mmHg 55%
    14:00 +26°C° 0 mm 6 mps 748 mmHg 55%
    15:00 +26°C° 0 mm 6 mps 748 mmHg 54%
    16:00 +25°C° 0.2 mm 5 mps 748 mmHg 60%
    17:00 +23°C° 0.2 mm 5 mps 748 mmHg 66%
    18:00 +22°C° 0.2 mm 4 mps 748 mmHg 72%
    19:00 +20°C° 0 mm 4 mps 748 mmHg 76%
    20:00 +19°C° 0 mm 3 mps 748 mmHg 80%
    21:00 +18°C° 0 mm 3 mps 747 mmHg 83%
    22:00 +18°C° 0 mm 3 mps 747 mmHg 86%
    23:00 +17°C° 0 mm 3 mps 747 mmHg 88%

    22 July, Monday

    Time Temperature Precipitation Wind Pressure Humidity
    00:00 +17°C° 0 mm 3 mps 747 mmHg 91%
    01:00 +16°C° 0 mm 3 mps 747 mmHg 92%
    02:00 +16°C° 0 mm 3 mps 747 mmHg 93%
    03:00 +16°C° 0 mm 2 mps 747 mmHg 94%
    04:00 +16°C° 0 mm 3 mps 747 mmHg 92%
    05:00 +17°C° 0 mm 3 mps 747 mmHg 89%
    06:00 +18°C° 0 mm 3 mps 747 mmHg 86%
    07:00 +19°C° 0 mm 4 mps 747 mmHg 80%
    08:00 +20°C° 0 mm 4 mps 747 mmHg 74%
    09:00 +21°C° 0 mm 4 mps 747 mmHg 68%
    10:00 +22°C° 0.1 mm 5 mps 747 mmHg 65%
    11:00 +23°C° 0.1 mm 5 mps 746 mmHg 61%
    12:00 +25°C° 0.1 mm 5 mps 746 mmHg 58%
    13:00 +25°C° 0.4 mm 5 mps 746 mmHg 59%
    14:00 +25°C° 0.4 mm 5 mps 746 mmHg 61%
    15:00 +25°C° 0.4 mm 5 mps 746 mmHg 62%
    16:00 +23°C° 0.2 mm 4 mps 746 mmHg 64%
    17:00 +23°C° 0.2 mm 4 mps 746 mmHg 66%
    18:00 +22°C° 0.2 mm 3 mps 746 mmHg 69%
    19:00 +20°C° 0 mm 3 mps 746 mmHg 73%
    20:00 +18°C° 0 mm 2 mps 746 mmHg 77%
    21:00 +17°C° 0 mm 2 mps 746 mmHg 82%
    22:00 +16°C° 0 mm 2 mps 746 mmHg 83%
    23:00 +15°C° 0 mm 1 mps 746 mmHg 85%

    23 July, Tuesday

    Time Temperature Precipitation Wind Pressure Humidity
    00:00 +15°C° 0 mm 1 mps 746 mmHg 86%
    01:00 +15°C° 0 mm 1 mps 746 mmHg 87%
    02:00 +14°C° 0 mm 2 mps 746 mmHg 88%
    03:00 +14°C° 0 mm 2 mps 746 mmHg 89%
    04:00 +15°C° 0 mm 2 mps 746 mmHg 86%
    05:00 +16°C° 0 mm 2 mps 747 mmHg 83%
    06:00 +17°C° 0 mm 2 mps 747 mmHg 80%
    07:00 +18°C° 0 mm 2 mps 747 mmHg 73%
    08:00 +20°C° 0 mm 3 mps 747 mmHg 66%
    09:00 +21°C° 0 mm 3 mps 747 mmHg 59%
    10:00 +22°C° 0 mm 3 mps 747 mmHg 57%
    11:00 +22°C° 0 mm 3 mps 747 mmHg 54%
    12:00 +24°C° 0 mm 3 mps 747 mmHg 52%
    13:00 +24°C° 0 mm 3 mps 747 mmHg 52%
    14:00 +24°C° 0 mm 3 mps 747 mmHg 52%
    15:00 +25°C° 0 mm 2 mps 747 mmHg 52%
    16:00 +24°C° 0 mm 2 mps 747 mmHg 56%
    17:00 +24°C° 0 mm 2 mps 747 mmHg 61%
    18:00 +23°C° 0 mm 2 mps 747 mmHg 65%
    19:00 +22°C° 0 mm 1 mps 748 mmHg 70%
    20:00 +20°C° 0 mm 1 mps 748 mmHg 75%
    21:00 +18°C° 0 mm 1 mps 748 mmHg 80%
    22:00 +18°C° 0 mm 1 mps 748 mmHg 80%
    23:00 +15°C° 0 mm 0 mps 748 mmHg 81%
    Show more